Retour au catalogue

STARLINK-35893

ActifCommunicationsVLEO
NORAD 66565·PAYLOAD·🇺🇸 United States

Lancé Nov 21, 2025 depuis Cape Canaveral Space Force Station

Loading…

Prochains Passages (prochaines 24 heures)

TLE

FraisSource: CelesTrak SupGP

Époque: Sep 14, 2026, 23:07 UTC

1 66565C 25268J   26257.96368056 -.00020595  00000+0 -74588-3 0  2570
2 66565  43.0035 357.9412 0001498 272.8813 283.6917 15.27592433    17

Suivez STARLINK-35893 en temps réel avec AllMySat

Download on the App Store